AO-07 1 07530U 74089B 20072.20319653 -.00000043 00000-0 16378-4 0 9990 2 07530 101.7883 042.5330 0012068 189.9351 241.1896 12.53642428073801 UO-11 1 14781U 84021B 20072.13960392 .00000049 00000-0 12080-4 0 9998 2 14781 097.5960 088.9263 0009114 152.3283 207.8418 14.83148300917407 LO-19 1 20442U 90005G 20072.10518089 -.00000008 00000-0 13372-4 0 9998 2 20442 98.6818 19.0817 0012911 82.2144 278.0505 14.32946852574675 HUBBLE 1 20580U 90037B 20072.20729167 .00000412 00000-0 14068-4 0 9999 2 20580 028.4685 242.8443 0002787 122.1948 215.4690 15.09350909441252 MET-2/21 1 22782U 93055A 20072.44083556 -.00000011 00000-0 -23047-4 0 9993 2 22782 82.5485 310.5831 0023001 144.7330 28.2909 13.83824556339891 AO-27 1 22825U 93061C 20072.33054959 -.00000020 00000-0 10207-4 0 9994 2 22825 98.9230 72.3402 0007514 304.0999 55.9469 14.30079767380206 IO-26 1 22826U 93061D 20072.26975480 -.00000021 00000-0 97067-5 0 9999 2 22826 098.9170 072.2363 0007938 290.9897 069.0435 14.30414646380157 FO-29 1 24278U 96046B 20072.37467647 -.00000019 00000-0 19975-4 0 9999 2 24278 98.5695 194.9821 0349273 266.2603 89.8542 13.53096243164007 NOAA-15 1 25338U 98030A 20072.39207142 -.00000001 00000-0 18036-4 0 9994 2 25338 98.7275 97.8887 0010500 179.2616 180.8581 14.25954272135399 GO-32 1 25397U 98043D 20072.24795565 -.00000002 00000-0 18254-4 0 9991 2 25397 098.7193 014.5340 0001456 028.9531 331.1728 14.23680788125725 ISS 1 25544U 98067A 20072.90486111 .00000057 00000-0 91942-5 0 9993 2 25544 51.6421 104.8619 0005911 17.5507 348.7435 15.49237377217092 NO-44 1 26931U 01043C 20072.34001655 -.00000050 00000-0 12812-4 0 9998 2 26931 67.0524 33.0039 0006280 264.5113 95.5272 14.30569551963257 SO-50 1 27607U 02058C 20072.11609624 -.00000013 00000-0 18838-4 0 9994 2 27607 64.5556 311.9716 0060017 201.9553 157.8978 14.75614893926495 CO-55 1 27844U 03031E 20071.99520978 .00000026 00000-0 31609-4 0 9992 2 27844 98.6847 81.1897 0009439 344.1398 15.9483 14.22225323866286 CO-57 1 27848U 03031J 20072.27509691 .00000017 00000-0 27347-4 0 9991 2 27848 98.6918 82.0123 0009559 355.7842 4.3253 14.21813855866162 RS-22 1 27939U 03042A 20072.72716436 .00000071 00000-0 21351-4 0 9990 2 27939 98.0730 208.9232 0011516 302.4931 57.5163 14.66841589879835 NOAA-18 1 28654U 05018A 20072.40195685 .00000056 00000-0 54710-4 0 9990 2 28654 99.0575 127.8668 0015028 142.1884 218.0346 14.12494803763314 CO-58 1 28895U 05043F 20072.61899331 .00000103 00000-0 28695-4 0 9993 2 28895 97.9925 211.7773 0015983 222.5663 137.4302 14.63744933766671 Falconsat-3 1 30776U 07006E 20072.61281265 .00002329 00000-0 63517-4 0 9990 2 30776 35.4341 179.3899 0002364 3.2973 356.7769 15.37340229721920 CO-65 1 32785U 08021C 20072.12389478 .00000185 00000-0 25469-4 0 9993 2 32785 097.5675 064.4560 0014593 095.4645 264.8237 14.88429098643396 AAUSAT2 1 32788U 08021F 20072.00183723 .00000027 00000-0 74807-5 0 9994 2 32788 97.4932 80.8303 0012442 29.9086 330.2844 14.94969792644854 DO-64 1 32789U 08021G 20072.36612727 .00000613 00000-0 44310-4 0 9991 2 32789 97.4311 118.5111 0010467 290.9535 69.0573 15.07509371647280 CO-66 1 32791U 08021J 20071.95684233 .00000273 00000-0 32892-4 0 9993 2 32791 097.5379 070.4341 0014784 069.9870 290.2939 14.90988526643858 RS-30 1 32953U 08025A 20072.73605147 .00000037 00000-0 19437-3 0 9998 2 32953 82.5080 338.0678 0018076 266.3152 93.5859 12.43094543535613 PRISM 1 33493U 09002B 20071.93233278 -.00000030 00000-0 29547-5 0 9996 2 33493 098.1373 008.2336 0015807 022.3849 337.8058 14.96934092605110 NOAA-19 1 33591U 09005A 20072.39911365 -.00000027 00000-0 10583-4 0 9994 2 33591 99.1965 75.2181 0013803 352.1390 7.9562 14.12398354571691 TISAT-1 1 36799U 10035E 20072.41713016 .00000366 00000-0 42899-4 0 9998 2 36799 98.1838 239.0137 0010994 289.8277 70.1754 14.91288957524665 JUGNU 1 37839U 11058B 20071.89621653 .00000323 00000-0 30649-4 0 9999 2 37839 19.9604 154.3874 0019110 33.0999 123.6752 14.12673946435087 SRMSAT 1 37841U 11058D 20072.44756630 .00000321 00000-0 31415-4 0 9998 2 37841 19.9708 213.3654 0011755 258.5111 140.3540 14.10652279434549 AO-71 1 37854U 11061E 20072.57446735 .00001148 00000-0 65571-4 0 9990 2 37854 101.7091 113.8418 0158836 349.9290 9.8751 15.07060362457333 HRBE 1 37855U 11061F 20072.05866394 .00001143 00000-0 64273-4 0 9994 2 37855 101.7230 110.2581 0171546 4.0295 356.2253 15.06074644457016 ALMASAT-1 1 38078U 12006B 20072.75361168 .00160848 14110-4 32478-3 0 9998 2 38078 69.4178 205.7907 0072128 201.3700 275.3595 15.94698599439698 HORYU-2 1 38340U 12025D 20072.39351378 .00000114 00000-0 24601-4 0 9991 2 38340 98.2942 123.5106 0011189 357.6573 2.4581 14.75818774420646 RS-40 1 38735U 12041C 20072.74932178 .00000017 00000-0 50549-4 0 9991 2 38735 82.4733 60.9563 0017268 16.9879 343.1775 12.42579515345843 BEESAT-3 1 39135U 13015F 20072.46892880 .00000832 00000-0 49785-4 0 9997 2 39135 64.8671 254.5984 0044511 261.8877 97.7199 15.17987602380881 BEESAT-2 1 39136U 13015G 20071.81805239 .00000623 00000-0 40783-4 0 9995 2 39136 64.8664 261.3527 0029120 279.6357 80.1480 15.17369134380694 ZACUBE-1 1 39417U 13066B 20072.02283417 .00000131 00000-0 22930-4 0 9993 2 39417 097.5642 075.4760 0057585 236.5978 122.9719 14.81233240340611 TRITON-1 1 39427U 13066M 20072.48403021 .00000267 00000-0 50234-4 0 9997 2 39427 97.7142 38.8651 0114482 28.9559 331.7934 14.67958006337623 GOMX-1 1 39430U 13066Q 20072.78847299 .00000139 00000-0 33781-4 0 9999 2 39430 97.7816 17.2100 0152085 128.7572 232.7353 14.59356741335701 LO-74 1 39440U 13066AA 20072.54640495 .00000155 00000-0 28761-4 0 9993 2 39440 97.6237 60.4462 0078779 295.4309 63.8763 14.75971141339488 AO-73 1 39444U 13066AE 20072.27887936 .00000175 00000-0 27908-4 0 9994 2 39444 097.5596 077.8895 0056830 228.2209 131.4142 14.82076558338970 SPROUT 1 39770U 14029E 20072.76563025 .00000460 00000-0 56612-4 0 9991 2 39770 97.8904 179.5162 0007628 289.2418 70.7955 14.87641146314680 DUCHIFAT-1 1 40021U 14033M 20072.36400596 .00000372 00000-0 43681-4 0 9990 2 40021 97.9379 3.0412 0011512 245.8442 114.1572 14.90832397311420 NANOSATCBR1 1 40024U 14033Q 20072.33308781 .00000318 00000-0 38931-4 0 9995 2 40024 97.9243 359.6956 0010770 250.6165 109.3889 14.90012440311298 EO-79 1 40025U 14033R 20071.88733811 .00000209 00000-0 28194-4 0 9990 2 40025 097.9133 356.2277 0010983 259.7843 100.2136 14.89084185310573 DTUSAT-2 1 40030U 14033W 20072.02465983 .00000172 00000-0 24496-4 0 9995 2 40030 097.9026 354.0371 0010434 254.6732 105.3332 14.88666949310514 EO-80 1 40032U 14033Y 20072.04014513 .00000202 00000-0 27762-4 0 9991 2 40032 97.9032 354.0542 0010374 255.5056 104.5010 14.88613889311010 ANTELSAT 1 40034U 14033AA 20072.13967427 .00000156 00000-0 30597-4 0 9992 2 40034 097.7274 292.4228 0057676 314.2045 045.4434 14.74216464307540 VELOX-1 1 40057U 14034E 20072.68024092 .00000256 00000-0 43273-4 0 9996 2 40057 98.2629 207.0844 0012423 96.2555 264.0078 14.77816256307344 DAURIA DX 1 1 40071U 14037C 20072.72299593 .00000095 00000-0 19652-4 0 9995 2 40071 98.4513 245.7998 0009848 87.5426 272.6916 14.81340949306936 UKUBE-1 1 40074U 14037F 20072.76079592 .00000249 00000-0 36910-4 0 9994 2 40074 98.4521 255.3397 0005463 74.5979 285.5830 14.84209202307417 HODOYOSHI-1 1 40299U 14070B 20072.68836874 .00000529 00000-0 24725-4 0 9997 2 40299 97.3297 151.6502 0013267 168.8545 343.3834 15.23958004297079 CHUBUSAT-1 1 40300U 14070C 20072.67483818 .00000498 00000-0 24434-4 0 9997 2 40300 97.2979 144.6905 0019250 189.4335 323.1008 15.22389935296787 QSAT-EOS 1 40301U 14070D 20072.66754266 .00001493 00000-0 59176-4 0 9992 2 40301 97.3008 149.3051 0025715 167.0042 348.0492 15.26652446297166 FIREBIRD FU3 1 40377U 15003B 20072.28893829 .00001324 00000-0 55212-4 0 9999 2 40377 99.1079 112.5756 0123548 278.5309 80.1936 15.19707988282556 FIREBIRD FU4 1 40378U 15003C 20072.20832795 .00001315 00000-0 54818-4 0 9998 2 40378 99.1082 112.5710 0123743 278.6768 80.0461 15.19723562282545 GRIFEX 1 40379U 15003D 20072.54028781 .00001076 00000-0 49513-4 0 9998 2 40379 99.1151 105.4375 0132488 300.9110 57.9147 15.16161814282162 NO-84 1 40654U 15025D 20072.38774246 .00011613 00000-0 14676-3 0 8756 2 40654 54.9884 27.5187 0119056 297.2641 61.6353 15.52036485153947 DEORBITSAIL 1 40719U 15032E 20071.94500501 .00000308 00000-0 50908-4 0 9993 2 40719 097.8822 322.9281 0016607 158.3215 201.8702 14.76929621251703 NUDT-PHONESAT 1 40900U 15049B 20072.66948101 .00001879 00000-0 81076-4 0 9999 2 40900 97.4336 84.4681 0011666 332.1947 121.7314 15.23725747248452 XW-2A 1 40903U 15049E 20072.68908225 .00001690 00000-0 40614-4 0 9991 2 40903 97.3016 121.5213 0011405 251.2992 261.7044 15.42726231251555 XW-2C 1 40906U 15049H 20072.67717442 .00000482 00000-0 28531-4 0 9994 2 40906 97.4753 75.4652 0014669 357.4380 63.0230 15.15959572247591 XW-2D 1 40907U 15049J 20072.62559072 .00000423 00000-0 25356-4 0 9990 2 40907 97.4735 75.1075 0013909 355.0649 99.3252 15.16177396247601 LILACSAT-2 1 40908U 15049K 20072.68982579 .00000183 00000-0 13662-4 0 9999 2 40908 97.4884 73.6559 0016029 3.0006 116.8494 15.13972973247356 XW-2E 1 40909U 15049L 20072.66699122 .00001012 00000-0 52682-4 0 9994 2 40909 97.4635 78.4621 0012892 347.5009 104.2478 15.18246895247846 XW-2F 1 40910U 15049M 20072.71771270 .00000949 00000-0 50255-4 0 9999 2 40910 97.4670 77.6238 0014089 344.8939 104.2679 15.17757612247660 XW-2B 1 40911U 15049N 20072.67391049 .00000732 00000-0 41407-4 0 9996 2 40911 97.4757 75.8441 0013789 355.7679 115.4538 15.16106952247506 DCBB 1 40912U 15049P 20072.66661222 .00001073 00000-0 52759-4 0 9990 2 40912 97.4501 81.6146 0013620 323.1876 129.3046 15.20127832248013 TW-1C 1 40926U 15051B 20072.71320992 .00016029 00000-0 18320-3 0 9992 2 40926 97.0983 124.0291 0008542 94.7505 53.7599 15.62206097251900 TW-1A 1 40928U 15051D 20072.67808769 .00002192 00000-0 53111-4 0 9996 2 40928 97.1195 102.8423 0010970 168.9006 332.0332 15.42093183250452 IO-86 1 40931U 15052B 20072.08856261 .00001073 00000-0 60313-4 0 9995 2 40931 5.9968 309.7152 0014526 341.9752 18.1209 14.76632185240844 LQSat 1 40958U 15057A 20072.12209031 .00000008 00000-0 87295-5 0 9997 2 40958 097.8645 138.6106 0019553 102.2000 258.1399 14.73110661238189 AO-85 1 40967U 15058D 20072.35663684 .00000009 00000-0 20299-4 0 9778 2 40967 64.7737 65.6109 0171582 110.8178 251.1400 14.76080887147249 ATHENOXAT-1 1 41168U 15077C 20072.27605401 .00001758 00000-0 56668-4 0 9992 2 41168 14.9890 54.3128 0011475 215.3483 144.6077 15.14163898234598 ChubuSat-2 1 41338U 16012B 20072.16524314 .00000306 00000-0 16975-4 0 9997 2 41338 031.0024 244.8186 0013874 233.4947 126.4410 15.00255830223115 ChubuSat-3 1 41339U 16012C 20072.70284391 .00000284 00000-0 15221-4 0 9994 2 41339 31.0111 239.1575 0013550 247.5570 112.3624 15.00423487223195 Horyu-4 1 41340U 16012D 20072.50582875 .00000459 00000-0 27986-4 0 9997 2 41340 31.0040 229.1559 0014115 267.0702 92.8318 15.01436394223296 OUFTI-1 1 41458U 16025C 20072.32506445 .00001855 00000-0 96405-4 0 9993 2 41458 98.0958 177.8428 0164684 176.3282 183.9196 15.06543639212855 e-st@r-II 1 41459U 16025D 20072.67527302 .00001830 00000-0 95816-4 0 9995 2 41459 98.0972 177.7014 0166135 176.8307 183.4013 15.06137430212871 AAUSAT4 1 41460U 16025E 20072.75792807 .00003695 00000-0 18354-3 0 9992 2 41460 98.0937 179.7854 0155810 166.6966 193.8416 15.08326459213061 LO-87 1 41557U 16033B 20072.58375992 .00001046 00000-0 41166-4 0 9997 2 41557 97.4040 163.4603 0015175 73.4240 286.8664 15.27794259210981 NuSat2 1 41558U 16033C 20072.54314966 .00001206 00000-0 44402-4 0 9992 2 41558 97.4084 165.3686 0014189 72.1031 288.1755 15.29751672211071 Lapan A3 1 41603U 16040E 20072.69268409 .00000108 00000-0 81517-5 0 9996 2 41603 97.3230 129.1981 0013459 173.6709 300.4900 15.19805635206441 Swayam 1 41607U 16040J 20072.16366381 .00001178 00000-0 51482-4 0 9995 2 41607 097.3300 133.7823 0013736 163.2318 196.9376 15.23961252206604 Pratham 1 41783U 16059A 20072.15168592 .00000035 00000-0 15988-4 0 9995 2 41783 098.0300 130.2845 0032230 262.1440 097.6104 14.63041354184659 AlSat 1N 1 41789U 16059G 20072.73134300 .00000066 00000-0 21411-4 0 9997 2 41789 98.0328 133.4447 0026923 247.4272 112.4075 14.64301793184873 ScatSat 1 41790U 16059H 20072.71123952 .00000028 00000-0 18072-4 0 9995 2 41790 98.1745 115.8136 0004716 208.3173 151.7767 14.50903470183193 TY-1 1 41844U 16066D 20072.64503358 .00000751 00000-0 33248-4 0 9992 2 41844 97.4053 81.8972 0013923 331.6343 164.3402 15.24690541185514 Pegasus-1 1 41846U 16066F 20072.41576304 .00000205 00000-0 40916-4 0 9994 2 41846 98.6757 121.3956 0367583 161.9682 199.4954 14.37716688175026 CAS-2T 1 41847U 16066G 20072.21534372 .00000049 00000-0 17362-4 0 9997 2 41847 098.6685 121.6863 0366252 158.4967 203.2065 14.38046409175447 EO-88 1 42017U 17008BX 20071.99974691 .00001247 00000-0 50984-4 0 9998 2 42017 097.3703 140.9514 0004873 317.6920 042.3942 15.26211535170686 nSIGHT1 1 42726U 98067MF 20072.29432118 .00111806 15995-4 30639-3 0 9996 2 42726 51.6295 4.1754 0005395 141.0233 219.1164 15.93862073160104 CAS-4B 1 42759U 17034B 20072.70697243 .00000047 00000-0 16374-4 0 9997 2 42759 43.0168 198.5852 0010111 146.2072 354.8534 15.09759984151348 CAS-4A 1 42761U 17034D 20072.72180639 .00000059 00000-0 17073-4 0 9998 2 42761 43.0165 197.8660 0010393 145.7456 351.7685 15.09838145151349 UCLSat 1 42765U 17036A 20072.20761016 .00000983 00000-0 44287-4 0 9994 2 42765 097.3143 129.0052 0011652 017.4600 342.7035 15.23299901151771 NIUSat 1 42766U 17036B 20072.20850478 .00000735 00000-0 35554-4 0 9998 2 42766 097.3139 126.7404 0015564 008.2768 351.8722 15.21542720150907 LituanicaSAT 2 1 42768U 17036D 20072.21477229 .00001587 00000-0 68882-4 0 9996 2 42768 097.3193 128.8469 0014647 005.6930 354.4471 15.23692134151038 Aalto 1 1 42775U 17036L 20072.13515781 .00000638 00000-0 31151-4 0 9996 2 42775 97.3122 127.0194 0013969 8.8366 351.3114 15.21695737150879 URSA MAIOR 1 42776U 17036M 20072.59593230 .00000682 00000-0 32944-4 0 9992 2 42776 97.3132 127.7115 0013720 7.1658 352.9772 15.21863078150953 Max Valier Sat 1 42778U 17036P 20072.59934094 .00000716 00000-0 33870-4 0 9998 2 42778 97.3182 128.8561 0012310 11.5314 348.6203 15.22442732150995 Pegasus 1 42784U 17036V 20072.21342776 .00000874 00000-0 40056-4 0 9993 2 42784 097.3147 128.7381 0012231 017.8655 342.3010 15.23003318150970 NUDATSat 1 42787U 17036Y 20072.21938593 .00001488 00000-0 63818-4 0 9997 2 42787 097.3202 129.9242 0012963 010.5194 349.6310 15.24211712150887 SUCHAI 1 1 42788U 17036Z 20072.20583472 .00001060 00000-0 47231-4 0 9996 2 42788 097.3154 129.2325 0011731 016.7923 343.3700 15.23512469151077 SKCUBE 1 42789U 17036AA 20072.11099234 .00001043 00000-0 46728-4 0 9996 2 42789 097.3150 129.0210 0011640 017.4960 342.6676 15.23372158150974 VZLUSAT 1 1 42790U 17036AB 20072.20769707 .00001348 00000-0 58119-4 0 9992 2 42790 097.3171 129.9090 0011059 015.7406 344.4174 15.24199838151038 VENTA 1 1 42791U 17036AC 20072.21566352 .00000961 00000-0 43274-4 0 9991 2 42791 097.3148 129.1697 0011301 017.9250 342.2383 15.23363735150988 Robusta 1B 1 42792U 17036AD 20072.40507618 .00001012 00000-0 45176-4 0 9994 2 42792 97.3151 129.5292 0011185 17.3106 342.8510 15.23557331151045 D-SAT 1 42794U 17036AF 20072.41656972 .00000053 00000-0 10135-4 0 9996 2 42794 97.5063 109.8134 0125374 329.5027 29.8941 14.91232519148232 TechnoSat 1 42829U 17042E 20072.58191324 .00000071 00000-0 12558-4 0 9996 2 42829 97.5341 318.8317 0012768 245.5969 114.3918 14.91065639144854 QIKCOM-1 1 42983U 98067NF 20072.58688554 .00003677 00000-0 49512-4 0 9994 2 42983 51.6386 73.5239 0004542 56.1830 303.9596 15.60740361135157 AO-91 1 43017U 17073E 20071.95948690 .00000769 00000-0 65067-4 0 9993 2 43017 097.7262 347.9429 0257658 008.3214 352.2147 14.78830939124754 EcAMSat 1 43019U 98067NG 20072.15998915 .00006405 00000-0 70396-4 0 9999 2 43019 51.6403 64.7441 0004739 43.8343 316.3027 15.64631521217558 PICSAT 1 43132U 18004X 20072.15843809 .00001062 00000-0 46559-4 0 9997 2 43132 97.4565 144.0680 0010586 43.6233 316.5839 15.24169631120236 AO-92 1 43137U 18004AC 20072.17973385 .00000780 00000-0 35216-4 0 9991 2 43137 97.4552 143.9665 0010256 45.5438 314.6636 15.23929898120221 TianYi 2 1 43155U 18008A 20072.70812427 .00000240 00000-0 17880-4 0 9991 2 43155 97.4561 144.2291 0019222 119.0199 38.4083 15.11490150118307 Zhou Enlai 1 43156U 18008B 20072.70894899 .00000289 00000-0 20999-4 0 9993 2 43156 97.4607 144.0885 0016409 116.9720 40.8848 15.11019554118262 TianYi 6 1 43158U 18008D 20072.69018058 .00000447 00000-0 30850-4 0 9991 2 43158 97.4571 143.2480 0015143 115.4416 2.9114 15.10568491118214 S-Net G 1 43186U 18014G 20072.38042328 -.00000140 00000-0 -71529-5 0 9993 2 43186 97.7004 341.7679 0010641 181.4469 178.6724 14.96767359115170 S-Net H 1 43187U 18014H 20072.17968355 -.00000100 00000-0 -36462-5 0 9991 2 43187 097.7002 341.5515 0010637 181.9768 178.1413 14.96767369115146 S-Net J 1 43188U 18014J 20072.17953750 -.00000090 00000-0 -27650-5 0 9992 2 43188 097.7005 341.5773 0010642 182.0689 178.0491 14.96767061115140 S-Net K 1 43189U 18014K 20072.38047860 -.00000148 00000-0 -78464-5 0 9995 2 43189 97.7002 341.7452 0010632 181.3735 178.7459 14.96766543113724 FMN 1 1 43192U 18015A 20072.64585176 .00001889 00000-0 77811-4 0 9991 2 43192 97.4270 202.7232 0017499 73.6060 52.5775 15.25230097117149 Shaonian Xing 1 43199U 18015H 20072.71450222 .00001431 00000-0 59127-4 0 9992 2 43199 97.4057 201.3121 0018708 82.0225 25.2018 15.25490679117211 1KUNS-PF 1 43466U 98067NP 20072.32493611 .00062650 00000-0 28759-3 0 9996 2 43466 51.6317 42.9529 0003338 95.3031 264.8353 15.83037926105031 UBAKUSAT 1 43467U 98067NQ 20072.41089804 .00018965 00000-0 15498-3 0 9998 2 43467 51.6343 59.4377 0002519 44.3434 315.7765 15.70602207104832 EnduroSat One 1 43551U 98067NZ 20072.24498596 .00028889 00000-0 20757-3 0 9995 2 43551 051.6335 060.5600 0005805 081.2044 278.9612 15.73367465095036 EQUISat 1 43552U 98067PA 20072.40959368 .00018720 00000-0 16019-3 0 9992 2 43552 51.6367 65.5124 0006149 77.5815 282.5870 15.69480392 94940 UiTMSat 1 1 43589U 98067PD 20072.11840650 .00022471 00000-0 18027-3 0 9992 2 43589 051.6334 066.4247 0005620 083.2447 276.9190 15.70909977090640 Maya 1 1 43590U 98067PE 20072.17508330 .00022280 00000-0 17871-3 0 9990 2 43590 51.6332 66.0620 0005675 83.8579 276.3065 15.70919431 90587 Bhutan 1 1 43591U 98067PF 20072.15457444 .00022597 00000-0 18052-3 0 9991 2 43591 051.6348 065.9770 0005826 084.2570 275.9091 15.71005591090581 SiriusSat 1 1 43595U 98067PG 20072.14133382 .00020685 00000-0 17778-3 0 9996 2 43595 051.6336 069.6015 0003988 055.7378 304.3996 15.69307907089718 SiriusSat 2 1 43596U 98067PH 20072.38770354 .00020547 00000-0 17720-3 0 9993 2 43596 51.6346 69.0625 0004456 54.5088 305.6324 15.69226511 89740 Tanusha-3 1 43597U 98067PJ 20072.14570981 .00037586 00000-0 25402-3 0 9999 2 43597 51.6324 62.7873 0004489 70.7888 289.3596 15.74662640 89805 SurfSat 1 43614U 18070B 20072.19405426 .00001976 00000-0 51728-4 0 9996 2 43614 093.0263 114.3898 0015209 004.2771 355.8609 15.38715096083524 CP-7 DAVE 1 43615U 18070C 20072.08700968 .00002174 00000-0 57113-4 0 9999 2 43615 93.0266 114.3410 0015371 4.0129 356.1245 15.38595544 83505 ELFIN-B 1 43616U 18070D 20072.20595369 .00002649 00000-0 67015-4 0 9990 2 43616 093.0228 114.3074 0015917 005.8037 354.3399 15.39722441083557 ELFIN-A 1 43617U 18070E 20072.24962589 .00002985 00000-0 75157-4 0 9996 2 43617 93.0282 114.7563 0015079 2.7107 357.4226 15.39868595 83563 STARS-Me Mother 1 43640U 98067PQ 20072.15015749 .00009339 00000-0 10536-3 0 9992 2 43640 051.6349 081.0033 0005356 031.0291 329.1019 15.63290829081499 CubeBel 1 1 43666U 18083E 20072.68662966 .00000902 00000-0 47538-4 0 9997 2 43666 97.4984 100.0664 0014306 344.0834 154.7260 15.18068183 75935 Changshagaoxin 1 43669U 18083H 20072.59538704 .00000630 00000-0 35121-4 0 9995 2 43669 97.4867 98.4640 0010104 338.9831 21.0986 15.17146735 75843 Ten-Koh 1 43677U 18084G 20072.06488090 .00000189 00000-0 25313-4 0 9990 2 43677 97.8699 189.4406 0017363 117.8044 242.4936 14.90255271 74438 PO-101 1 43678U 18084H 20072.67441631 -.00000260 00000-0 -20174-4 0 9990 2 43678 97.8701 191.1633 0011136 131.1892 229.0300 14.91607454 74595 IRVINE 01 1 43693U 18088D 20072.16287876 .00001942 00000-0 82023-4 0 9991 2 43693 085.0365 141.4020 0015501 291.3821 068.5767 15.22444757074049 QO-100 1 43700U 18090A 20072.15049215 .00000125 00000-0 00000-0 0 9998 2 43700 000.0108 214.1520 0002422 167.4268 228.6433 01.00272225004737 Reaktor Hello World 1 43743U 18096AA 20072.68723413 .00001120 00000-0 44628-4 0 9992 2 43743 97.4301 147.0268 0019822 108.6250 42.4227 15.27177434 71627 MinXSS-2 1 43758U 18099A 20071.85419129 -.00000052 00000-0 49618-6 0 9995 2 43758 97.7151 145.3520 0016383 151.4635 208.7486 14.95591985 69360 AO-95 1 43770U 18099N 20072.45576062 -.00000036 00000-0 19119-5 0 9990 2 43770 97.7147 145.4898 0015283 156.1310 204.0622 14.94923766 69421 RANGE-B 1 43772U 18099Q 20072.21997005 .00000779 00000-0 76185-4 0 9998 2 43772 097.7212 145.6597 0015254 144.4367 215.7873 14.95094014069382 RANGE-A 1 43773U 18099R 20072.17779821 -.00000231 00000-0 -15924-4 0 9997 2 43773 097.7093 144.9299 0014459 144.4125 215.8063 14.94920493069378 MOVE-II 1 43780U 18099Y 20072.43032509 .00000438 00000-0 44855-4 0 9991 2 43780 97.7149 145.6149 0014412 153.2325 206.9643 14.95303956 69419 SNUSat 2 1 43782U 18099AA 20072.16687057 .00000114 00000-0 15542-4 0 9999 2 43782 097.7146 145.3825 0013713 143.4172 216.7988 14.95199585069388 SnugLite 1 43784U 18099AC 20072.20833447 .00000604 00000-0 59960-4 0 9998 2 43784 097.7109 145.2771 0016016 151.9013 208.3076 14.95288646069400 ITASat 1 1 43786U 18099AE 20072.14037050 .00000503 00000-0 50854-4 0 9990 2 43786 97.7162 145.5291 0016096 151.2737 208.9374 14.95271768 69397 EAGLET 1 1 43790U 18099AJ 20072.15713140 .00000608 00000-0 59824-4 0 9999 2 43790 097.7155 145.7571 0014291 154.6380 205.5545 14.95655017069108 ESEO 1 43792U 18099AL 20072.22819824 .00000244 00000-0 27157-4 0 9995 2 43792 097.7130 145.6968 0014048 151.2140 208.9859 14.95576709069171 CSIM 1 43793U 18099AM 20072.16581661 .00000350 00000-0 36383-4 0 9993 2 43793 097.7117 145.5666 0014081 149.3377 210.8670 14.95948719069142 Astrocast 0.1 1 43798U 18099AS 20072.29142215 .00000477 00000-0 47796-4 0 9990 2 43798 97.7147 145.9699 0013705 135.0489 225.1844 14.95830931 69427 JO-97 1 43803U 18099AX 20072.56744184 .00000134 00000-0 17323-4 0 9993 2 43803 97.7125 145.7927 0015987 150.0021 210.2119 14.95438957 69450 Suomi 100 1 43804U 18099AY 20072.16616470 .00000182 00000-0 21589-4 0 9998 2 43804 97.7122 145.3898 0016032 151.4157 208.7947 14.95430631 69405 Al Farabi 2 1 43805U 18099AZ 20072.54916032 .00000815 00000-0 78578-4 0 9991 2 43805 97.7128 145.8254 0016239 150.3528 209.8617 14.95532568 69466 PWSat 2 1 43814U 18099BJ 20072.26959760 .00019689 00000-0 12822-2 0 9992 2 43814 097.7858 151.3951 0012280 152.6455 207.5414 15.07916028069054 CHOMPTT 1 43855U 18104G 20072.18776139 .00000976 00000-0 39775-4 0 9999 2 43855 85.0350 239.5272 0019680 54.2312 306.0768 15.22798840 68728 ISAT 1 43879U 18111D 20072.59312031 -.00000169 00000-0 -98291-5 0 9990 2 43879 97.7080 341.5553 0012358 203.3196 156.7466 14.96170176 63997 UWE-4 1 43880U 18111E 20072.18759958 -.00000254 00000-0 -17325-4 0 9993 2 43880 097.7092 341.3756 0011441 204.9019 155.1652 14.96406642065945 Sparrow 1 43881U 18111F 20072.57475223 .00000371 00000-0 37731-4 0 9998 2 43881 97.7100 341.8138 0011583 200.8222 159.2529 14.96464833 64003 Lume 1 1 43908U 18111AJ 20072.52388400 .00000899 00000-0 38770-4 0 9992 2 43908 97.2743 335.2744 0022771 123.1899 237.1527 15.24836952 67250 FO-98 1 43933U 19003B 20072.70270176 .00000564 00000-0 27620-4 0 9992 2 43933 97.2436 126.0803 0016645 217.6516 257.2112 15.21971000 63819 FO-99 1 43937U 19003F 20072.68390138 .00001052 00000-0 45809-4 0 9996 2 43937 97.2404 127.0376 0023525 202.3119 275.1488 15.24146228 63891 Delphini 1 1 44030U 98067PW 20072.18169567 .00012932 00000-0 14653-3 0 9994 2 44030 051.6349 087.2255 0005105 067.8188 292.3347 15.62768621063282 MYSat 1 1 44045U 18092F 20072.66718912 .00002567 00000-0 82501-4 0 9998 2 44045 51.6451 152.0610 0011048 335.5354 24.5106 15.36161816 60415 AstroCast 0.2 1 44083U 19018F 20072.41817394 .00000782 00000-0 37802-4 0 9997 2 44083 97.4332 134.7519 0014199 146.3998 213.8141 15.21473444 52623 AISTechSat 3 1 44103U 19018AB 20072.67271772 .00000662 00000-0 31088-4 0 9999 2 44103 97.4203 135.1134 0014188 160.1846 352.1086 15.23004571 52702 AISat 1 1 44104U 19018AC 20072.17692884 .00000749 00000-0 26588-4 0 9991 2 44104 097.4741 141.1983 0057997 196.6920 163.2414 15.30882680052924 Raavana-1 1 44329U 98067QE 20071.37606540 .00007603 00000-0 11429-3 0 9999 2 44329 51.6387 105.1722 0006915 1.9304 358.1713 15.55927187 41722 Uguisu 1 44330U 98067QF 20072.34752560 .00007318 00000-0 11046-3 0 9991 2 44330 51.6384 100.4071 0006892 4.5681 355.5372 15.55881142 41853 NepaliSat-1 1 44331U 98067QG 20072.46212275 .00007215 00000-0 10863-3 0 9991 2 44331 51.6386 99.6750 0006969 7.2607 352.8484 15.55975504 41885 Prox-1 1 44339U 19036A 20072.01379044 .00001000 00000-0 18820-3 0 9994 2 44339 24.0051 4.9514 0011570 167.3739 192.7028 14.52875424 37944 Oculus-ASR 1 44348U 19036K 20072.29190662 .00008577 00000-0 12794-3 0 9991 2 44348 028.5216 299.7225 0375163 352.5922 006.9238 15.00558155039182 Armadillo 1 44352U 19036P 20071.92796337 .00011461 00000-0 17250-3 0 9994 2 44352 28.5361 299.9807 0366162 351.6516 7.8177 15.02409010 39093 NO-104 1 44354U 19036R 20072.02065897 .00009313 00000-0 13754-3 0 9996 2 44354 28.5312 299.6714 0372100 351.8065 7.6575 15.01458537 39148 NO-103 1 44355U 19036S 20071.99648463 .00017339 00000-0 25233-3 0 9990 2 44355 028.5309 295.5822 0357761 358.4755 001.4738 15.05041129039192 CP9 1 44360U 19036X 20072.28149226 .00027220 -55174-5 32624-3 0 9992 2 44360 28.5175 285.6766 0348108 15.0966 345.9819 15.10126254 39185 Move-IIb 1 44398U 19038N 20072.15054180 .00000958 00000-0 58983-4 0 9993 2 44398 97.5250 34.7043 0026942 101.6870 258.7386 15.12098322 37872 SONATE 1 44400U 19038Q 20072.42973502 .00000459 00000-0 30409-4 0 9994 2 44400 97.5279 34.9985 0026919 99.4306 260.9969 15.11854640 37915 BeeSat 9 1 44412U 19038AC 20072.13321453 .00000681 00000-0 43025-4 0 9992 2 44412 097.5269 034.7605 0024435 105.4873 254.9058 15.12128174037562 JAISAT-1 1 44419U 19038F 20072.58146777 .00000808 00000-0 49739-4 0 9991 2 44419 97.5272 35.3935 0023331 103.4313 256.9520 15.12611207 37950 LightSail-2 1 44420U 19036AC 20072.15300440 .00005881 00000-0 12934-2 0 9994 2 44420 24.0107 2.2043 0023850 158.2702 201.8725 14.54736858 36122 Taurus 1 1 44530U 19059C 20072.68352423 .00001386 00000-0 40669-3 0 9990 2 44530 98.5726 152.8439 0016956 93.9590 266.3546 14.45329221 26361 MO-106 1 44830U 19084G 20072.12511619 .00026985 00000-0 22075-3 0 9997 2 44830 096.9906 300.8842 0033414 248.4457 111.3244 15.69746878015142 TRSI-Sat 1 44831U 19084H 20072.37950661 .00025605 00000-0 20968-3 0 9996 2 44831 96.9912 301.1526 0033468 246.5966 113.1776 15.69729080 15197 MO-105 1 44832U 19084J 20072.36432795 .00031165 00000-0 25018-3 0 9998 2 44832 96.9911 301.1669 0032765 246.3040 113.4785 15.70202173 15188 Duchifat 3 1 44854U 19089C 20072.71067037 .00000328 00000-0 33003-4 0 9990 2 44854 36.9698 310.0544 0008977 349.7574 10.3020 14.98991734 13774 OPS-SAT 1 44878U 19092F 20072.03924792 -.00000066 00000-0 00000-0 0 9992 2 44878 097.4669 256.9836 0013323 339.2462 020.8327 15.15299299012786 FloripaSat 1 1 44885U 19093G 20072.70716721 .00000206 00000-0 32748-4 0 9999 2 44885 97.9644 149.4432 0014695 9.5149 350.6350 14.81980930 12378 SwampSat-2 1 45115U 19071E 20072.61854339 .00006217 00000-0 20053-3 0 9993 2 45115 51.6417 111.1404 0013680 67.3220 292.9207 15.33417605 6251 HuskySat-1 1 45119U 19071J 20072.48659050 .00000908 00000-0 39481-4 0 9992 2 45119 51.6435 111.7595 0012879 65.4344 294.7978 15.33209659 6249 QARMAN 1 45257U 98067RA 20072.24841388 .00003577 00000-0 70524-4 0 9996 2 45257 051.6415 107.9940 0008780 005.9455 354.1636 15.50039786003429 AztechSat-1 1 45258U 98067RB 20072.18435118 .00002894 00000-0 58716-4 0 9990 2 45258 51.6411 108.3152 0006529 348.8119 11.2724 15.49987872 3381 /EX